Location: Zagreb
(45.8000°N, 16.0000°E)
Time: 20:35:51
(UTC+01:00)

DX 1 - Pass Details

Date: 06 November 2020
Orbit: 619 x 630 km, 98.5° (Epoch: 01 December)

Event Time Altitude Azimuth Distance (km) Brightness Sun altitude
Exits shadow 18:18:31 12° 21° (NNE) 1,868 ? -18.3°
Maximum altitude 18:22:30 63° 102° (ESE) 700 ? -19.0°
Drops below altitude 10° 18:26:49 10° 184° (S) 1,994 ? -19.7°
Sets 18:29:01 0° 187° (S) 2,898 ? -20.1°
